Wind_Speed
28 27 26 25 25 24 22 20 18 16 16 15 14 13 12 11 11 9 7 6 5 5 6 5 7 7 7 7 6 5 4 3 2 1 2 3 5 7 8 11 13 15 16 17
27 26 25 24 24 24 22 22 20 19 18 18 15 14 12 11 11 9 6 5 5 4 4 5 7 7 8 7 7 6 6 5 5 5 5 7 8 10 12 14 16 17 18 19
26 25 24 23 21 21 21 21 20 19 19 17 16 14 12 11 9 7 6 5 5 6 5 7 8 8 8 8 7 6 6 6 7 8 9 10 12 13 15 16 17 19 20 20
24 23 23 21 19 18 19 19 19 20 19 18 18 17 14 12 11 10 9 10 10 9 9 9 9 9 9 9 9 9 9 9 10 11 12 13 15 16 17 18 19 20 21 21
25 22 21 20 18 17 17 18 19 19 19 19 18 18 17 15 14 13 12 12 11 11 10 10 10 10 10 10 11 11 12 12 12 13 14 14 15 17 18 19 20 21 21 22
26 23 21 19 17 15 15 16 16 16 16 17 18 18 17 16 15 14 13 12 12 12 12 11 12 12 12 12 12 12 12 12 12 13 13 14 15 17 18 19 19 20 21 22
29 24 21 18 16 14 13 13 14 14 15 16 17 16 15 15 14 14 14 13 13 13 13 13 13 13 13 13 13 13 13 13 13 13 13 14 15 16 16 17 18 18 19 19
32 27 22 18 15 13 12 11 11 12 13 14 14 14 14 14 14 14 14 14 14 14 14 14 15 15 15 15 15 15 15 15 15 15 15 16 16 15 15 14 15 16 16 17
34 29 24 20 16 13 11 10 9 10 11 12 12 12 12 13 13 14 15 15 16 16 16 17 17 17 16 16 16 16 17 17 17 17 17 17 17 16 15 15 15 15 16 16
32 32 27 22 17 14 12 10 8 8 9 9 10 11 11 11 12 14 14 15 16 17 17 18 18 17 17 17 17 17 18 18 19 19 19 18 18 18 17 17 17 17 16 16
29 31 29 25 19 15 12 10 8 7 7 8 8 9 10 10 11 12 14 15 16 16 17 18 18 18 18 18 17 17 18 18 19 19 20 20 19 19 20 19 19 18 17 16
25 28 28 26 22 17 14 11 9 8 7 7 7 7 8 9 10 11 12 14 14 15 16 17 17 17 18 18 17 17 17 18 18 19 20 20 20 21 21 21 21 21 19 16
21 24 26 26 24 20 16 12 9 7 7 6 6 6 6 7 8 9 10 12 13 13 14 15 16 16 17 17 17 17 17 17 18 19 19 20 21 22 22 22 23 23 22 20
17 20 22 24 24 21 18 15 10 7 6 5 5 4 4 4 5 6 8 9 10 11 12 13 14 15 16 16 16 16 17 17 18 18 19 20 21 22 23 23 23 23 23 23
14 16 18 20 21 21 19 17 13 9 6 5 4 4 3 2 2 3 5 6 8 9 9 11 12 13 14 15 16 16 16 17 17 18 18 19 20 22 23 24 24 24 24 24
13 13 15 16 18 19 19 18 15 12 7 5 4 4 3 2 1 1 2 3 4 6 7 9 10 12 13 14 15 15 15 16 17 17 18 18 18 20 21 23 24 24 25 25
12 12 12 13 14 15 16 17 16 13 10 6 5 4 3 2 2 2 2 2 3 4 5 7 8 10 11 12 13 13 14 15 16 17 17 17 17 17 18 20 21 23 23 23
12 12 11 11 11 13 13 14 15 14 12 10 7 5 4 4 3 3 3 3 4 4 5 6 7 8 9 10 11 11 12 14 15 17 17 17 16 16 16 16 18 19 20 21
14 12 12 11 11 11 11 12 13 13 12 11 9 7 6 5 5 4 5 5 6 5 5 6 6 6 7 8 8 8 9 11 13 15 16 16 16 15 15 14 15 16 16 17
17 15 13 13 12 11 11 11 11 11 11 11 10 8 7 7 6 6 5 6 7 7 7 7 7 6 6 6 5 6 7 8 11 13 15 15 15 14 13 13 13 13 14 14
21 19 17 15 14 14 13 12 12 11 10 10 10 9 8 8 7 7 6 6 7 9 9 9 8 8 6 5 4 4 5 6 8 10 13 14 14 13 12 12 12 12 12 12
26 23 21 19 18 17 16 15 15 13 12 11 10 10 9 9 8 8 8 7 8 9 10 10 10 9 8 6 4 4 4 4 6 8 10 12 13 13 12 11 11 11 11 11
30 28 26 24 22 21 20 19 18 18 16 14 13 11 10 10 9 9 9 9 8 8 9 10 11 10 9 8 6 5 5 5 5 6 8 10 11 12 11 10 10 10 10 10
34 32 30 28 27 25 24 23 22 21 20 18 17 15 13 12 11 10 10 10 10 9 9 10 10 11 11 10 9 7 6 6 5 6 6 7 9 10 10 10 9 9 9 9
38 36 34 32 31 29 27 25 25 24 23 22 21 19 17 16 14 12 11 11 11 10 10 9 10 11 12 12 11 10 9 8 7 7 6 6 6 7 8 9 9 9 8 8
42 39 37 36 34 32 30 28 27 26 25 25 24 23 22 20 18 16 14 12 11 11 11 10 10 11 13 14 14 13 12 11 10 9 8 8 7 7 7 7 8 9 8 7
46 44 41 39 38 37 35 32 30 29 28 27 26 26 25 24 22 20 18 16 14 12 12 12 11 12 14 15 17 16 15 14 13 12 11 10 9 8 8 7 7 8 8 7
Wind_Direction
27 28 30 32 34 35 38 44 53 60 64 71 74 82 94 111 123 124 111 95 86 74 64 55 49 46 45 45 46 41 29 16 10 332 296 286 281 277 281 283 284 283 281 280
27 29 32 34 36 37 39 46 55 62 65 70 74 84 92 100 110 116 110 87 67 51 32 28 25 24 23 21 12 2 352 346 336 313 297 287 283 282 283 286 286 286 284 282
26 28 31 34 37 39 42 50 55 60 64 68 69 81 91 96 95 98 89 69 51 46 38 26 24 21 19 16 11 2 349 334 319 306 299 293 289 287 287 288 288 287 286 285
24 26 30 32 39 46 48 53 56 59 65 70 73 77 80 79 79 79 74 68 60 55 48 41 34 25 16 9 1 352 341 329 318 309 303 298 295 293 292 291 290 289 288 288
24 26 29 32 39 47 54 58 60 62 66 69 71 71 70 70 70 68 66 62 57 53 48 42 35 26 16 6 356 347 338 330 322 314 309 305 301 298 296 294 292 291 290 290
25 25 27 31 39 49 57 62 63 64 66 67 65 64 62 60 59 57 54 51 48 43 40 34 27 20 14 8 2 357 350 343 336 328 321 314 309 305 301 298 296 294 292 291
27 27 29 32 40 48 56 63 65 63 63 62 61 59 56 54 54 53 49 46 43 38 33 29 26 24 23 22 19 14 10 4 356 348 340 333 326 320 313 307 304 301 299 297
27 28 30 35 42 51 58 65 65 61 59 59 59 57 57 56 53 50 47 45 42 40 39 37 36 36 36 33 29 24 19 14 9 4 359 354 348 342 335 326 319 314 310 306
27 29 32 36 43 51 59 64 64 61 59 59 58 57 56 54 51 48 46 45 44 44 44 43 43 43 42 37 33 30 27 25 23 19 15 10 5 359 352 344 336 329 322 316
25 26 29 33 40 48 56 61 64 63 60 56 55 53 53 52 49 47 46 45 44 45 45 45 46 47 43 40 37 34 33 32 29 26 23 19 15 10 4 356 348 341 334 326
22 24 27 31 37 44 51 55 60 63 59 53 49 48 49 49 48 47 47 46 45 46 46 46 46 45 43 40 37 37 36 34 32 29 26 22 18 14 10 5 359 354 348 342
19 22 25 29 33 37 42 48 56 63 60 53 48 48 47 47 47 47 47 47 47 47 46 45 44 43 41 38 35 34 33 31 29 27 24 22 19 16 13 11 10 8 7 8
13 18 22 25 28 32 35 38 47 60 58 51 47 49 52 49 47 45 45 46 47 46 45 43 42 40 37 33 30 28 27 27 27 26 24 23 23 22 20 20 22 24 26 31
0 9 16 21 25 28 31 32 37 51 58 55 48 48 52 47 47 45 43 44 44 42 40 39 37 35 32 29 26 24 25 26 26 26 26 27 28 28 29 30 31 34 40 46
342 355 4 12 19 25 29 30 32 39 52 54 48 45 43 44 45 40 38 37 38 36 34 33 32 30 28 25 24 23 24 25 26 27 28 29 31 33 35 36 39 44 49 53
325 337 349 360 10 18 25 28 28 32 38 39 34 30 22 9 359 3 12 18 21 23 25 24 25 24 23 23 23 25 25 25 26 27 27 29 32 35 37 41 45 49 53 56
310 319 330 343 355 5 15 24 28 28 27 22 16 8 1 349 327 312 313 327 344 352 2 10 14 17 19 22 25 29 29 29 28 27 27 28 31 35 40 43 47 50 53 56
299 304 311 321 334 346 357 10 20 25 25 23 18 10 360 350 332 305 300 297 305 318 333 346 357 6 14 20 27 33 34 33 31 28 27 27 30 34 39 43 46 50 53 56
289 293 296 301 310 322 335 347 2 13 18 19 19 13 2 351 340 316 297 289 287 293 303 319 333 347 0 12 24 35 37 32 28 26 26 26 28 32 38 43 46 48 51 54
279 282 285 287 290 297 307 320 333 349 1 9 11 9 3 355 345 333 312 291 280 279 283 292 304 315 333 353 11 26 31 28 24 24 23 23 25 27 31 38 43 45 47 50
273 275 275 278 280 282 285 292 304 316 331 344 354 359 358 353 346 335 323 306 288 274 273 278 286 290 295 315 341 357 11 17 16 17 19 21 22 23 24 30 37 41 43 46
269 270 272 272 273 275 275 276 281 289 300 312 326 337 346 349 346 342 334 319 304 283 273 275 277 276 272 280 301 321 334 349 359 6 12 16 18 18 19 21 27 33 37 41
266 268 269 270 271 271 270 270 271 273 279 286 296 308 320 333 339 337 336 330 317 299 282 275 272 265 258 260 273 292 306 316 331 347 359 8 13 14 14 14 17 22 29 36
264 266 267 268 269 269 268 267 266 267 269 272 277 284 294 306 318 327 330 330 322 315 302 285 270 259 251 250 258 271 284 294 304 317 334 350 2 8 9 9 11 15 21 29
262 263 264 266 266 267 267 266 264 263 263 265 268 271 276 284 294 304 314 321 324 318 308 293 277 262 250 247 252 260 269 276 285 296 304 316 333 349 357 359 0 4 10 18
260 260 260 261 263 264 264 263 262 260 259 260 262 264 267 271 276 284 294 303 309 313 311 299 281 268 256 250 251 255 261 267 273 280 287 293 301 313 330 342 348 352 357 4
257 258 258 258 259 259 260 260 260 258 257 256 257 259 261 263 266 270 276 284 292 296 300 302 292 276 264 255 252 253 256 261 265 269 274 280 285 290 298 311 325 335 343 348
Height
5822 5816 5811 5806 5801 5796 5792 5788 5785 5782 5780 5779 5779 5779 5779 5780 5781 5783 5784 5785 5785 5785 5785 5784 5784 5783 5783 5783 5783 5783 5784 5784 5785 5785 5785 5786 5786 5786 5787 5787 5786 5786 5785 5785
5825 5820 5815 5810 5805 5801 5798 5794 5790 5788 5786 5784 5784 5783 5784 5784 5785 5786 5787 5787 5787 5787 5786 5786 5786 5785 5785 5784 5784 5784 5784 5784 5784 5785 5784 5784 5784 5784 5783 5782 5781 5781 5780 5779
5828 5823 5818 5814 5810 5807 5804 5800 5797 5794 5793 5790 5789 5789 5789 5789 5789 5789 5789 5789 5789 5789 5788 5788 5787 5787 5787 5786 5786 5785 5785 5784 5784 5783 5782 5782 5781 5780 5779 5778 5776 5775 5774 5773
5831 5827 5822 5821 5814 5812 5809 5806 5803 5801 5799 5797 5796 5795 5794 5794 5794 5794 5793 5793 5792 5792 5791 5790 5789 5789 5788 5787 5786 5785 5784 5783 5782 5781 5780 5779 5777 5776 5774 5772 5771 5769 5767 5766
5833 5829 5825 5822 5818 5815 5813 5811 5809 5807 5805 5804 5802 5801 5800 5799 5798 5798 5797 5796 5796 5795 5794 5793 5792 5790 5789 5788 5786 5785 5783 5782 5780 5778 5777 5775 5773 5771 5769 5767 5765 5763 5761 5759
5835 5831 5827 5825 5821 5818 5817 5815 5814 5812 5811 5809 5807 5806 5806 5804 5803 5801 5800 5799 5798 5797 5796 5795 5793 5791 5790 5788 5786 5784 5782 5779 5777 5775 5773 5771 5769 5767 5764 5762 5759 5757 5755 5753
5838 5834 5830 5826 5823 5821 5821 5820 5817 5816 5815 5813 5812 5811 5810 5808 5807 5805 5804 5802 5801 5799 5798 5796 5794 5792 5790 5788 5786 5783 5781 5778 5776 5773 5771 5768 5765 5763 5760 5757 5755 5752 5750 5747
5842 5836 5834 5828 5825 5824 5823 5821 5820 5819 5818 5817 5816 5815 5814 5812 5810 5809 5807 5805 5803 5802 5800 5798 5796 5794 5792 5789 5787 5784 5781 5778 5775 5772 5769 5766 5763 5760 5757 5754 5751 5748 5745 5743
5847 5843 5836 5831 5828 5826 5824 5823 5822 5821 5821 5820 5819 5818 5817 5815 5814 5812 5810 5808 5806 5804 5802 5800 5798 5796 5794 5791 5789 5786 5783 5780 5776 5773 5770 5767 5763 5760 5756 5753 5749 5746 5742 5739
5850 5845 5839 5834 5830 5828 5826 5824 5824 5823 5822 5822 5821 5820 5819 5818 5816 5814 5813 5811 5809 5807 5805 5803 5801 5799 5797 5794 5791 5788 5785 5782 5779 5775 5772 5768 5764 5760 5756 5752 5748 5744 5739 5735
5854 5849 5843 5838 5834 5830 5828 5826 5825 5824 5824 5823 5823 5822 5821 5819 5818 5817 5815 5813 5811 5809 5808 5806 5804 5802 5800 5797 5794 5791 5788 5785 5782 5778 5774 5770 5766 5762 5757 5752 5747 5742 5737 5732
5857 5853 5848 5843 5838 5834 5830 5828 5826 5826 5825 5824 5824 5823 5822 5821 5820 5818 5817 5815 5814 5812 5810 5809 5807 5805 5803 5800 5797 5794 5791 5788 5784 5781 5777 5773 5769 5764 5759 5753 5747 5742 5736 5730
5859 5855 5851 5846 5841 5837 5833 5830 5828 5827 5826 5826 5825 5824 5823 5822 5821 5820 5819 5817 5816 5814 5813 5811 5809 5807 5805 5803 5800 5797 5794 5791 5787 5784 5780 5776 5771 5766 5761 5756 5750 5744 5738 5733
5859 5857 5853 5849 5845 5841 5837 5833 5830 5828 5827 5826 5826 5825 5824 5823 5823 5822 5821 5819 5818 5816 5815 5813 5812 5810 5808 5805 5802 5799 5796 5793 5790 5786 5782 5778 5774 5769 5764 5759 5753 5748 5743 5738
5859 5857 5854 5851 5847 5843 5840 5836 5832 5830 5828 5827 5826 5825 5825 5824 5823 5823 5822 5821 5819 5818 5817 5815 5813 5812 5809 5807 5804 5802 5799 5796 5792 5789 5785 5781 5777 5773 5768 5763 5758 5753 5749 5745
5857 5855 5854 5851 5849 5845 5842 5838 5835 5832 5830 5828 5827 5826 5825 5824 5824 5823 5823 5822 5821 5819 5818 5816 5815 5813 5811 5809 5806 5804 5801 5798 5795 5792 5788 5784 5780 5777 5773 5768 5764 5759 5755 5752
5854 5853 5852 5851 5849 5846 5843 5840 5837 5834 5831 5829 5827 5826 5825 5824 5824 5823 5823 5822 5821 5820 5819 5817 5815 5814 5812 5810 5808 5805 5803 5800 5797 5794 5791 5787 5784 5780 5777 5773 5769 5766 5762 5759
5851 5850 5850 5849 5847 5846 5844 5841 5838 5835 5832 5830 5828 5826 5825 5824 5823 5823 5822 5821 5821 5820 5819 5817 5816 5814 5813 5811 5809 5807 5805 5802 5799 5796 5793 5790 5787 5784 5780 5777 5774 5771 5768 5765
5847 5846 5846 5845 5844 5844 5842 5841 5839 5836 5833 5831 5828 5827 5825 5824 5822 5822 5821 5820 5820 5819 5818 5817 5816 5815 5813 5812 5810 5808 5806 5804 5801 5799 5796 5793 5790 5787 5784 5781 5778 5775 5772 5770
5842 5842 5842 5841 5841 5840 5840 5839 5837 5836 5833 5831 5829 5826 5825 5823 5822 5820 5819 5818 5818 5817 5816 5815 5815 5814 5813 5812 5811 5809 5807 5805 5803 5800 5798 5795 5792 5789 5787 5784 5781 5778 5776 5773
5836 5836 5836 5837 5836 5836 5836 5835 5834 5833 5832 5830 5828 5826 5824 5822 5820 5819 5817 5816 5815 5814 5814 5813 5813 5812 5812 5811 5810 5809 5808 5806 5804 5802 5799 5796 5794 5791 5789 5786 5784 5781 5779 5776
5828 5829 5830 5830 5831 5831 5830 5830 5830 5830 5829 5828 5826 5825 5823 5821 5819 5817 5816 5814 5813 5811 5811 5810 5810 5809 5809 5809 5809 5808 5807 5806 5804 5802 5800 5797 5795 5792 5790 5788 5786 5783 5781 5779
5819 5820 5821 5822 5823 5824 5824 5824 5824 5824 5824 5824 5823 5822 5821 5819 5817 5815 5814 5812 5811 5809 5808 5807 5806 5806 5806 5807 5807 5807 5806 5805 5804 5802 5800 5798 5796 5793 5791 5789 5787 5785 5783 5781
5809 5811 5812 5813 5814 5815 5816 5817 5817 5818 5818 5818 5818 5817 5817 5816 5814 5813 5812 5810 5808 5806 5805 5803 5802 5803 5803 5804 5804 5804 5804 5803 5803 5801 5800 5798 5796 5794 5792 5790 5788 5786 5784 5782
5797 5799 5802 5803 5804 5805 5807 5808 5809 5810 5810 5811 5811 5811 5811 5811 5810 5809 5808 5807 5805 5804 5802 5801 5800 5799 5800 5800 5801 5801 5801 5801 5801 5800 5799 5797 5796 5794 5792 5790 5789 5787 5785 5783
5783 5787 5789 5792 5793 5795 5796 5798 5799 5800 5801 5802 5803 5804 5804 5804 5804 5804 5803 5803 5802 5800 5799 5798 5797 5796 5796 5796 5797 5798 5798 5798 5798 5798 5797 5796 5794 5793 5791 5790 5788 5787 5785 5783
5768 5772 5775 5778 5781 5782 5785 5787 5788 5790 5791 5793 5794 5795 5795 5796 5797 5797 5797 5797 5797 5796 5795 5794 5793 5792 5791 5792 5792 5793 5794 5794 5794 5794 5794 5793 5792 5791 5790 5788 5787 5785 5784 5783